sat.trackr.live / text

‹ back to catalog

STARLINK-32043

NORAD 60135 · 2024-120A

PAYLOAD ACTIVE UNKNOWN

§ Identity

Operator
Country
US
Launch date
2024-06-27
Launch site
AFETR
Launch vehicle
Mass (kg)
RCS (m²)

Purposes: comms

External: N2YO · Heavens-Above · Gunter

§ Orbital elements

Epoch: 2026-05-24T22:54:12.897216Z

Period
94.11 min
Inclination
53.1608°
Eccentricity
0.0001171
Mean motion
15.30195715 rev/d
Perigee alt
474.4 km
Apogee alt
476.0 km
Semi-major
6,853.4 km
B*
3.9864e-5
RAAN
325.6103°
Arg perigee
94.0968°
Mean anomaly
266.0167°
Rev number
10,805

§ Raw data

STARLINK-320431 60135U 24120A   26144.95431594  .00000822  00000+0  39864-4 0  99962 60135  53.1608 325.6103 0001171  94.0968 266.0167 15.30195715108055

JSON: /api/v1/satellites/60135 · /tle

For live sub-satellite position, see the globe view (requires WebGL).

§ Visibility from observer

Set your observer location to see the next 7 days of passes ≥ 10°. The values pass through the URL so the page stays shareable.

No JS? Fill the form by hand. The geolocation button needs JavaScript.